Wetbulb
59.52 60.89 60.71 59.06 57.13 59.32 54.52 53.92 52.90 54.54 56.00 59.79 61.85 62.61 63.55 64.21 65.32 65.92 67.56 68.09 69.43 71.09 72.06 72.89 73.13 73.85 74.30 74.65 75.54 75.88 76.15 77.04
59.13 61.73 60.87 60.74 61.47 55.56 56.29 48.74 46.69 50.05 52.09 54.44 58.99 61.30 63.50 64.04 65.14 66.80 68.49 69.31 70.20 71.13 72.40 73.48 73.92 74.26 74.78 75.24 75.75 75.87 75.73 76.02
58.57 58.49 58.29 58.38 57.33 57.81 56.78 54.86 50.10 50.37 51.34 59.56 60.89 61.78 62.46 64.11 65.71 66.95 68.36 69.85 71.23 72.03 72.93 73.69 74.42 74.33 74.74 75.13 75.60 75.62 75.83 76.02
55.38 56.95 58.38 58.60 57.70 58.23 54.60 53.79 54.91 51.87 52.39 61.04 62.62 62.70 63.14 64.04 65.98 66.84 70.15 70.63 71.91 72.67 73.06 73.30 73.91 74.24 74.65 75.13 75.09 75.59 76.19 76.31
53.06 54.62 55.84 55.79 58.65 59.03 57.67 56.91 52.80 51.23 52.36 61.75 64.35 64.49 64.47 64.01 65.69 66.48 69.10 71.61 72.24 72.95 73.63 73.91 74.04 74.62 74.70 75.41 75.61 75.98 76.58 75.95
52.64 54.04 56.77 54.86 56.15 57.67 57.17 53.84 53.77 53.03 53.81 57.60 63.17 63.77 65.68 66.13 66.12 67.03 68.89 69.95 71.84 72.90 73.61 74.39 75.32 75.71 76.03 75.78 76.30 76.74 76.58 76.66
56.92 54.11 54.97 56.23 54.89 54.84 54.90 55.05 53.11 54.83 53.97 60.32 64.92 65.40 66.45 67.41 67.83 67.56 68.21 69.74 70.95 72.77 74.05 74.40 75.27 76.15 76.66 76.64 77.02 77.15 76.97 76.69
54.63 53.99 53.94 53.39 54.64 54.62 54.65 54.47 54.78 54.74 57.28 65.97 68.27 67.80 67.67 68.56 69.78 70.25 70.31 70.96 72.08 73.09 73.54 73.85 74.74 75.32 76.03 76.76 76.78 77.36 76.95 76.63
52.65 54.76 53.88 52.14 55.24 54.87 55.46 56.07 55.79 54.71 61.83 67.35 67.52 68.60 69.49 70.17 70.50 69.98 70.29 70.81 71.05 71.63 73.04 74.37 74.62 75.20 74.79 75.96 77.14 76.82 76.75 76.86
52.32 54.39 48.24 57.02 61.96 61.01 58.72 59.46 60.51 63.98 65.57 66.85 67.94 69.51 70.17 71.18 70.89 70.62 70.55 70.49 70.93 71.45 72.26 73.07 74.21 74.82 75.32 75.69 75.19 73.70 73.99 73.26
52.19 51.76 56.01 57.95 61.22 61.08 59.64 60.41 64.06 64.63 66.33 68.01 68.91 69.56 69.65 71.59 71.56 70.85 70.83 70.95 70.95 71.19 71.66 72.12 72.53 72.83 70.59 70.04 70.91 70.98 69.68 68.31
53.51 50.68 48.92 55.89 62.08 64.57 63.90 58.62 66.23 66.96 67.29 66.50 65.83 61.30 67.20 71.34 71.27 70.97 71.17 70.58 70.48 70.74 70.87 70.83 70.89 70.61 69.93 69.88 69.65 66.96 66.53 66.78
54.11 52.47 55.17 61.55 64.41 65.66 56.34 58.25 66.71 67.10 66.62 67.02 65.27 67.82 71.15 71.62 70.50 70.94 70.74 70.61 71.22 70.40 69.27 69.09 70.58 71.19 70.01 69.87 69.07 69.36 70.04 69.90
55.17 53.02 51.40 64.68 64.06 60.16 62.81 66.95 66.73 66.95 67.23 66.73 67.57 70.14 70.69 70.22 69.68 69.57 69.08 70.11 70.87 70.29 69.03 68.62 70.26 70.30 69.32 68.71 70.42 70.22 70.11 69.54
56.51 56.33 65.36 66.27 64.95 67.00 67.07 67.49 67.74 67.98 67.18 66.93 67.63 69.72 70.40 69.54 68.92 68.60 68.47 68.35 68.89 69.07 68.81 68.89 69.44 69.55 68.59 69.46 69.87 69.90 69.71 69.14
59.98 61.84 64.65 65.94 67.18 67.67 68.28 68.54 69.05 68.63 67.34 67.82 68.67 70.23 69.96 69.10 68.36 67.48 67.42 66.96 67.36 67.08 66.95 67.71 68.87 68.88 69.00 69.38 70.09 69.87 69.66 69.22
62.47 63.65 65.09 66.38 67.39 67.93 68.61 69.39 68.50 68.38 68.49 68.86 70.39 70.13 69.44 67.77 67.28 67.32 67.39 67.80 68.13 68.13 66.96 65.60 66.11 68.15 69.61 69.85 70.13 69.15 68.88 68.59
57.53 65.52 66.91 67.12 68.29 68.99 68.61 68.34 68.83 69.33 69.93 71.06 71.18 69.31 68.70 67.94 68.02 68.15 67.91 68.23 66.23 65.87 65.68 65.35 67.06 67.34 68.13 69.64 68.67 68.43 67.06 64.93
65.59 67.70 68.02 68.49 68.84 70.35 69.33 69.17 69.93 70.46 71.16 70.72 70.33 69.47 68.78 67.14 66.41 63.06 65.35 66.58 66.87 66.35 66.82 66.94 66.44 66.06 67.46 68.81 68.80 67.82 66.63 66.40
MSLP
1000.30 1000.57 1000.53 1000.30 999.76 1000.01 999.33 1000.00 999.23 999.89 1000.15 1000.44 1000.76 1001.03 1001.23 1001.53 1001.94 1002.16 1002.45 1003.02 1003.62 1004.51 1005.51 1006.31 1007.05 1007.93 1008.67 1009.37 1010.08 1010.60 1010.95 1011.64
1000.50 1000.80 1000.94 1000.05 1000.05 999.63 999.47 999.30 999.08 999.88 999.91 999.95 1000.36 1000.66 1001.06 1001.40 1001.64 1001.94 1002.40 1003.04 1003.67 1004.24 1004.99 1005.88 1006.72 1007.66 1008.45 1009.09 1009.60 1009.70 1010.04 1010.74
1000.38 999.99 999.32 1000.18 999.80 999.83 999.44 999.73 999.24 999.08 999.78 1000.94 1001.10 1001.26 1001.12 1001.17 1001.64 1001.98 1002.48 1003.12 1003.70 1004.20 1004.85 1005.50 1006.35 1007.05 1007.96 1008.48 1008.86 1009.15 1009.48 1009.83
999.05 999.66 999.77 999.30 998.91 999.17 998.67 999.69 1000.07 999.94 999.97 1001.08 1001.41 1001.68 1001.93 1001.95 1002.16 1002.65 1003.01 1003.28 1003.80 1004.35 1004.97 1005.52 1006.10 1006.54 1007.14 1007.77 1008.03 1008.33 1008.68 1009.55
998.80 999.59 999.89 999.25 999.25 999.00 998.81 999.12 999.79 999.15 999.91 1000.98 1001.46 1001.92 1002.50 1002.45 1002.74 1003.08 1003.10 1003.61 1003.97 1004.41 1005.06 1005.49 1005.89 1006.28 1006.55 1007.09 1007.40 1007.70 1008.30 1008.81
997.64 997.83 997.96 998.85 999.13 999.29 998.87 998.50 999.16 999.35 999.88 1000.48 1001.64 1002.20 1002.68 1002.91 1003.15 1003.32 1003.59 1004.04 1004.17 1004.74 1005.17 1005.79 1006.13 1006.39 1006.71 1006.81 1007.07 1007.57 1007.78 1008.33
998.03 998.80 998.85 998.56 998.87 999.23 999.12 998.84 999.01 999.20 1000.00 1001.10 1002.27 1002.86 1003.32 1003.41 1003.64 1003.85 1004.14 1004.40 1004.85 1005.19 1005.67 1006.21 1006.50 1006.88 1007.23 1007.38 1007.50 1007.62 1008.06 1008.23
998.64 999.16 999.26 999.00 998.96 999.22 999.44 999.61 999.73 1000.08 1000.58 1002.30 1002.90 1003.35 1003.64 1003.97 1004.31 1004.70 1005.11 1005.47 1005.81 1006.08 1006.28 1006.52 1006.85 1007.07 1007.33 1007.59 1007.78 1008.10 1008.29 1008.63
998.46 999.06 999.41 999.30 999.13 999.30 999.64 999.89 999.81 999.98 1000.72 1002.40 1003.19 1003.70 1004.15 1004.61 1005.22 1005.78 1006.28 1006.78 1007.04 1007.26 1007.45 1007.63 1007.33 1007.39 1007.46 1007.70 1008.04 1008.38 1008.84 1009.14
998.26 999.12 999.17 999.15 999.82 999.87 999.79 1000.25 1000.53 1001.00 1002.03 1002.71 1003.60 1004.36 1005.05 1005.58 1006.10 1006.81 1007.36 1007.74 1007.94 1008.18 1008.47 1008.65 1008.50 1008.56 1008.65 1008.69 1009.05 1009.70 1009.96 1010.49
998.25 998.68 999.21 999.92 1000.03 999.98 999.82 1000.64 1000.86 1001.53 1002.43 1003.25 1003.95 1004.58 1005.64 1006.52 1007.15 1007.71 1008.22 1008.56 1008.81 1009.05 1009.33 1009.60 1009.61 1009.98 1010.22 1010.38 1010.58 1010.76 1011.13 1011.63
998.26 997.79 998.08 998.30 999.46 999.90 1000.07 1000.59 1001.36 1001.80 1002.44 1003.04 1003.71 1003.58 1005.38 1006.86 1007.57 1008.21 1008.87 1009.50 1009.70 1009.99 1010.18 1010.39 1010.70 1010.92 1010.89 1011.08 1011.30 1011.65 1011.95 1012.20
997.80 997.73 998.05 998.65 999.65 1000.28 999.99 999.49 1000.98 1001.77 1002.33 1003.07 1003.75 1004.88 1006.09 1007.33 1008.15 1008.81 1009.43 1009.96 1010.18 1010.66 1011.04 1011.25 1011.24 1011.24 1011.31 1011.47 1011.63 1011.99 1012.03 1012.21
997.12 997.38 998.01 999.06 1000.07 999.67 999.44 999.96 1000.85 1001.73 1002.57 1003.36 1004.48 1005.65 1006.75 1007.82 1008.55 1009.21 1009.88 1010.12 1010.39 1010.91 1011.63 1011.95 1011.87 1011.81 1011.75 1011.82 1012.01 1012.10 1012.02 1012.08
997.27 997.48 998.20 998.42 998.36 999.37 999.56 1000.25 1001.24 1002.00 1002.88 1003.76 1004.82 1006.00 1007.28 1008.31 1009.08 1009.76 1010.41 1010.66 1010.95 1011.29 1011.81 1012.10 1012.19 1012.08 1011.97 1012.18 1012.08 1011.92 1011.91 1012.07
998.06 998.62 998.38 998.72 999.28 999.60 999.94 1000.72 1001.63 1002.36 1003.29 1004.07 1005.11 1006.57 1007.83 1008.77 1009.47 1010.11 1010.70 1011.06 1011.36 1011.75 1012.16 1012.43 1012.54 1012.41 1012.31 1012.22 1012.04 1011.78 1011.91 1012.06
998.37 998.94 999.38 999.69 999.86 999.90 1000.50 1001.47 1002.12 1003.08 1003.80 1004.57 1005.81 1007.25 1008.43 1009.40 1010.14 1010.80 1011.28 1011.57 1011.78 1012.22 1013.00 1013.32 1013.29 1012.77 1012.35 1012.23 1011.87 1011.84 1012.22 1012.41
996.49 997.89 997.78 998.54 999.78 1000.35 1001.00 1001.90 1002.93 1003.77 1004.71 1005.66 1006.94 1008.25 1009.24 1010.08 1010.87 1011.36 1011.85 1012.26 1012.96 1013.30 1013.58 1013.60 1013.28 1013.22 1013.08 1012.69 1012.53 1012.25 1012.51 1013.02
996.76 997.42 998.05 998.92 1000.02 1000.89 1001.61 1002.47 1003.41 1004.55 1005.84 1006.86 1008.16 1009.04 1010.01 1011.22 1012.14 1012.74 1012.98 1013.03 1013.16 1013.36 1013.49 1013.53 1013.53 1013.60 1013.49 1013.29 1012.97 1013.00 1013.04 1013.31
Wind_Speed
4 3 12 8 6 10 4 5 3 3 7 6 4 7 6 4 3 4 4 4 6 9 11 13 15 15 14 14 15 16 17 13
8 7 4 8 5 7 3 2 3 9 2 10 7 7 6 6 5 6 5 5 7 8 10 11 13 13 13 13 13 15 15 13
10 11 12 7 9 5 3 6 3 1 9 7 5 5 2 6 4 6 6 7 8 8 8 10 11 13 13 13 14 14 14 13
12 6 3 6 8 11 9 10 3 7 10 8 6 7 3 1 3 2 2 7 7 7 7 8 10 12 14 13 14 14 13 13
11 10 5 8 10 10 5 3 5 7 9 6 8 9 6 4 3 3 5 6 7 7 7 7 9 10 12 13 14 12 12 13
9 7 8 8 10 9 12 6 8 4 9 8 7 7 8 6 4 3 4 4 5 4 5 5 6 8 9 11 11 12 12 13
9 4 2 10 12 10 10 6 5 12 5 7 6 6 6 7 7 6 4 3 3 1 2 5 6 6 7 8 9 10 10 11
15 5 6 9 7 8 5 4 3 3 6 5 5 6 7 9 10 11 11 9 9 7 6 5 6 5 5 6 7 7 8 8
14 10 9 11 11 11 8 6 4 8 10 9 10 10 10 11 11 11 11 11 12 12 11 10 8 5 4 3 3 4 5 4
11 10 14 7 5 4 4 3 4 10 11 10 10 11 10 9 9 10 10 10 10 10 10 11 10 10 8 8 7 8 3 4
7 12 7 6 7 10 12 7 9 14 13 12 10 10 10 8 10 10 10 9 9 9 9 9 9 11 10 10 9 8 10 8
10 15 10 7 13 6 5 10 11 13 12 12 8 9 9 7 8 10 11 10 9 10 10 11 10 9 9 9 9 8 5 3
11 11 6 5 17 11 11 5 19 14 11 9 4 7 10 9 9 10 10 9 9 11 11 10 9 9 9 7 7 5 4 5
11 11 8 13 14 13 5 15 17 13 11 10 10 9 9 9 9 9 8 9 9 9 9 7 8 6 7 8 6 5 5 6
9 10 5 25 11 10 9 17 15 13 12 10 11 10 10 9 9 9 9 8 8 8 9 9 9 8 7 6 4 2 2 4
8 6 11 19 5 12 12 16 15 14 13 11 10 11 11 10 9 9 9 8 8 9 8 7 7 6 6 6 5 4 5 6
5 6 9 10 11 14 16 16 15 13 11 9 12 12 11 11 10 9 8 7 7 8 9 8 7 8 8 7 6 8 7 6
7 16 13 18 16 18 18 18 16 14 12 11 13 13 12 11 9 8 9 9 8 7 8 7 7 8 8 8 9 6 7 7
2 16 7 16 20 19 18 18 16 15 13 15 13 12 12 11 9 9 8 8 8 9 8 8 8 8 8 6 6 6 5 4
Wind_Direction
192 200 242 142 224 21 227 164 222 58 133 118 194 228 213 177 177 181 183 158 170 171 185 189 192 191 193 192 199 205 202 205
149 170 187 294 85 208 214 99 28 108 92 80 92 120 128 148 152 135 126 130 150 171 175 182 193 188 195 196 206 208 210 204
169 214 171 175 216 234 32 327 343 165 94 43 59 49 50 123 118 105 120 140 154 162 170 176 183 188 194 202 203 206 208 211
190 103 2 305 238 199 245 146 49 308 94 81 62 61 40 99 129 89 144 142 151 160 169 174 186 195 194 203 205 209 208 212
168 172 170 227 201 237 299 352 131 297 107 79 72 79 79 66 90 170 181 159 164 164 170 197 195 205 206 204 214 210 205 210
192 198 160 175 187 209 237 188 140 272 122 130 60 46 45 43 55 128 171 149 160 175 179 205 226 218 224 223 219 218 209 209
245 64 250 196 175 189 228 294 264 133 174 66 32 26 40 52 64 82 89 99 95 274 233 247 252 256 253 251 235 234 227 222
229 186 236 222 186 190 202 208 214 212 131 58 84 95 83 77 71 69 64 57 45 31 8 343 327 305 293 271 261 242 244 248
217 192 191 216 199 190 178 193 259 216 99 131 110 90 78 81 74 65 57 47 38 31 23 11 352 347 329 322 259 236 235 253
230 175 214 93 139 247 225 171 183 109 137 120 113 105 87 61 71 64 52 44 38 33 30 21 22 34 33 36 48 72 86 123
193 208 116 144 175 176 184 148 168 143 144 142 135 134 94 72 65 63 58 51 46 43 42 40 44 52 64 63 63 67 70 72
202 221 207 215 169 187 194 172 180 164 167 160 178 218 101 92 75 70 63 58 50 58 63 62 62 76 81 83 84 80 70 62
188 209 145 118 149 167 207 145 170 188 172 173 165 49 104 103 87 81 72 63 78 66 65 67 66 68 69 66 57 42 46 46
201 199 179 166 149 195 119 148 160 166 156 150 122 124 112 104 92 80 76 67 62 71 73 61 54 59 60 53 56 67 71 71
229 197 148 172 177 168 161 156 160 159 154 145 145 136 123 110 97 88 83 76 72 84 84 73 61 48 60 56 35 73 98 48
190 138 160 179 177 172 169 158 158 156 151 156 140 135 128 120 111 105 97 91 92 92 82 65 44 47 41 28 9 11 43 34
93 116 151 177 192 168 152 152 149 142 143 139 137 131 125 120 116 107 102 98 89 76 68 67 53 45 48 41 27 62 67 66
196 174 187 181 177 165 152 148 146 137 126 119 122 128 126 120 118 112 97 88 82 95 84 81 84 68 46 41 42 55 95 81
184 173 181 156 154 155 151 145 137 128 133 124 124 128 123 110 106 110 108 106 91 79 78 75 66 53 37 30 37 55 68 86